This is the latest recevied weather packets stored in our database for station/object G4KVI. If no packets are shown the sender has not sent any weather packets the latest 10 day(s).
| Time | Temp. | Humidity | Pressure | Rain* | Wind** | Luminosity | Snow |
|---|---|---|---|---|---|---|---|
| 1777752305 | 11.67° C | 95% | 1013.3 hPa | 0.25 mm | - | 0 W/m² | - |
| 1777752005 | 11.67° C | 95% | 1013.2 hPa | 0.25 mm | - | 0 W/m² | - |
| 1777751705 | 11.67° C | 95% | 1013.5 hPa | 0.25 mm | - | 0 W/m² | - |
| 1777751405 | 11.67° C | 94% | 1013.4 hPa | 0 mm | - | 0 W/m² | - |
| 1777751105 | 11.67° C | 95% | 1013.3 hPa | 0 mm | - | 0 W/m² | - |
| 1777750805 | 11.67° C | 94% | 1013.5 hPa | 0 mm | - | 0 W/m² | - |
| 1777750505 | 11.67° C | 94% | 1013.4 hPa | 0 mm | - | 0 W/m² | - |
| 1777750205 | 11.67° C | 94% | 1013.7 hPa | 0.25 mm | - | 0 W/m² | - |
| 1777749905 | 12.22° C | 94% | 1013.5 hPa | 0.25 mm | - | 0 W/m² | - |
| 1777749605 | 12.22° C | 94% | 1013.4 hPa | 0.25 mm | - | 1 W/m² | - |
| 1777749305 | 12.22° C | 94% | 1013.6 hPa | 0.25 mm | - | 1 W/m² | - |
| 1777749005 | 12.22° C | 94% | 1013.4 hPa | 0.51 mm | - | 2 W/m² | - |
| 1777748705 | 12.22° C | 94% | 1013.4 hPa | 0.51 mm | - | 2 W/m² | - |
| 1777748405 | 12.22° C | 94% | 1013.2 hPa | 0.51 mm | - | 2 W/m² | - |
| 1777748105 | 12.22° C | 94% | 1013.5 hPa | 0.51 mm | - | 2 W/m² | - |
| 1777747805 | 12.22° C | 94% | 1013.4 hPa | 0.76 mm | - | 2 W/m² | - |
| 1777747505 | 12.22° C | 94% | 1013.4 hPa | 1.27 mm | - | 3 W/m² | - |
| 1777747205 | 12.22° C | 94% | 1013.7 hPa | 1.52 mm | - | 3 W/m² | - |
| 1777746905 | 12.22° C | 94% | 1013.6 hPa | 1.78 mm | - | 3 W/m² | - |
| 1777746605 | 12.22° C | 94% | 1013.4 hPa | 2.03 mm | - | 3 W/m² | - |
| 1777746305 | 12.22° C | 94% | 1013.7 hPa | 2.29 mm | - | 4 W/m² | - |
| 1777746005 | 12.22° C | 94% | 1013.7 hPa | 2.29 mm | - | 5 W/m² | - |
| 1777745705 | 12.22° C | 94% | 1013.5 hPa | 2.54 mm | - | 5 W/m² | - |
| 1777745405 | 12.22° C | 93% | 1013.6 hPa | 2.54 mm | - | 5 W/m² | - |
| 1777745105 | 12.22° C | 93% | 1013.4 hPa | 2.79 mm | - | 5 W/m² | - |
* Rain latest hour (hover to see other rain measurements)
** Current wind speed in m/s (hover to see current wind gust speed)